DG6YGE-6 Weather Reports


time (UTC)temp
C
wind
direction
speed
KPH
gust
KPH
rain 1hr
cm
rain 24hr
cm
rain mn
cm
humidity
%
barometer
mb
20260507072911 8 116 3.2 14.5 0.00 0.66 0.03 93 1012.2
20260507071911 8 234 4.8 17.7 0.00 0.66 0.03 93 1012.0
20260507070911 8 241 4.8 8.0 0.00 0.66 0.03 93 1011.9
20260507065911 8 312 4.8 14.5 0.00 0.89 0.03 93 1011.8
20260507064912 8 113 3.2 9.7 0.00 0.89 0.03 94 1011.8
20260507063912 8 243 4.8 12.9 0.00 0.89 0.03 93 1011.7
20260507062911 8 150 3.2 11.3 0.00 0.89 0.03 94 1011.6
20260507061911 8 123 3.2 12.9 0.00 0.89 0.03 94 1011.5
20260507060911 8 141 3.2 6.4 0.00 0.89 0.03 93 1011.4
20260507055911 8 327 4.8 12.9 0.00 1.12 0.03 93 1011.4
20260507054911 8 360 3.2 14.5 0.00 1.12 0.03 93 1011.3
20260507053911 8 360 3.2 9.7 0.00 1.12 0.03 93 1011.3
20260507052911 8 333 3.2 8.0 0.00 1.12 0.03 93 1011.1
20260507051911 8 360 3.2 11.3 0.00 1.12 0.03 93 1011.0
20260507050911 8 129 3.2 6.4 0.00 1.12 0.03 93 1010.9
20260507045911 8 126 3.2 9.7 0.00 1.40 0.03 93 1010.8
20260507044911 8 155 3.2 9.7 0.00 1.40 0.03 93 1010.7
20260507043911 7 92 3.2 12.9 0.00 1.40 0.03 93 1010.5
20260507042911 7 55 4.8 12.9 0.00 1.40 0.03 93 1010.3
20260507041911 7 360 3.2 9.7 0.00 1.40 0.03 93 1010.3
20260507040911 7 360 6.4 14.5 0.00 1.40 0.03 93 1010.2
20260507035911 7 94 6.4 16.1 0.00 1.63 0.03 93 1010.1
20260507034910 7 103 3.2 9.7 0.00 1.63 0.03 93 1010.2
20260507033911 7 124 4.8 12.9 0.00 1.63 0.03 93 1010.2
20260507032911 7 348 6.4 14.5 0.00 1.63 0.03 93 1010.2
20260507031911 7 331 4.8 16.1 0.00 1.63 0.03 93 1010.1
20260507030911 7 333 6.4 19.3 0.00 1.63 0.03 93 1010.1
20260507025911 8 328 6.4 17.7 0.00 1.85 0.03 93 1010.0
20260507024910 8 203 4.8 12.9 0.00 1.85 0.03 93 1009.9
20260507023911 8 323 6.4 14.5 0.00 1.85 0.03 93 1009.9
20260507022910 8 360 3.2 16.1 0.00 1.85 0.03 93 1009.9
20260507021911 8 355 4.8 12.9 0.00 1.85 0.03 93 1009.8
20260507020911 8 108 3.2 12.9 0.00 1.85 0.03 93 1009.8
20260507015911 8 95 3.2 8.0 0.03 2.13 0.03 93 1009.8
20260507014911 8 116 3.2 6.4 0.03 2.13 0.03 93 1009.6
20260507013911 8 360 3.2 8.0 0.03 2.13 0.03 93 1009.5
20260507012910 8 355 3.2 12.9 0.03 2.13 0.03 93 1009.4
20260507011911 8 90 3.2 9.7 0.03 2.13 0.03 93 1009.3
20260507010910 8 169 4.8 11.3 0.03 2.13 0.03 93 1009.5
20260507005911 8 360 3.2 9.7 0.00 2.39 0.00 93 1009.4
20260507004910 8 127 3.2 12.9 0.00 2.39 0.00 93 1009.4
20260507003910 8 143 3.2 8.0 0.00 2.39 0.00 93 1009.3
20260507002910 7 115 3.2 9.7 0.00 2.39 0.00 93 1009.3
20260507001911 7 109 4.8 9.7 0.00 2.39 0.00 94 1009.2
20260507000910 7 110 3.2 8.0 0.00 2.39 0.00 94 1009.1
20260506235910 7 355 6.4 19.3 0.00 2.64 0.00 94 1009.1
20260506234910 7 61 4.8 16.1 0.00 2.64 0.00 94 1009.0
20260506233910 7 178 9.7 19.3 0.00 2.64 0.00 94 1009.1
20260506232910 7 345 8.0 17.7 0.00 2.64 0.00 94 1009.1
20260506231910 8 360 4.8 14.5 0.00 2.64 0.00 94 1009.1
20260506230911 8 194 6.4 20.9 0.00 2.64 0.00 94 1009.0
20260506225910 8 129 3.2 6.4 0.00 2.69 0.00 94 1009.0
20260506224910 8 355 4.8 12.9 0.00 2.69 0.00 94 1008.9
20260506223910 8 197 4.8 14.5 0.00 2.69 0.00 94 1008.8
20260506222910 8 115 4.8 11.3 0.00 2.69 0.00 94 1008.7
20260506221910 8 130 4.8 8.0 0.03 2.69 0.00 94 1008.6
20260506220910 8 122 4.8 9.7 0.03 2.69 0.00 94 1008.5
20260506215910 8 180 4.8 11.3 0.03 2.69 2.69 94 1008.6
20260506214910 8 192 4.8 14.5 0.05 2.69 2.69 94 1008.5
20260506213910 8 57 4.8 16.1 0.05 2.69 2.69 94 1008.5
20260506212910 8 74 4.8 14.5 0.05 2.69 2.69 94 1008.3
20260506211910 8 300 4.8 20.9 0.05 2.67 2.67 94 1008.3
20260506210910 8 69 4.8 16.1 0.05 2.67 2.67 94 1008.2
20260506205910 8 196 4.8 16.1 0.05 2.67 2.67 94 1008.1
20260506204910 8 360 6.4 16.1 0.03 2.64 2.64 94 1008.1
20260506203910 8 116 4.8 14.5 0.03 2.64 2.64 94 1008.1
20260506202910 8 350 3.2 9.7 0.03 2.64 2.64 94 1008.1
20260506201910 8 355 8.0 16.1 0.00 2.62 2.62 94 1008.0
20260506200910 8 355 4.8 14.5 0.00 2.62 2.62 94 1008.0
20260506195910 8 344 6.4 19.3 0.00 2.62 2.62 94 1007.8
20260506194910 8 118 4.8 9.7 0.00 2.62 2.62 94 1007.8
20260506193910 8 144 4.8 8.0 0.00 2.62 2.62 93 1007.8
20260506192910 8 225 3.2 8.0 0.00 2.62 2.62 93 1007.7
20260506191910 8 360 3.2 14.5 0.00 2.62 2.62 93 1007.6
20260506190910 8 138 3.2 9.7 0.00 2.62 2.62 93 1007.6
20260506185910 8 109 4.8 11.3 0.00 2.62 2.62 93 1007.5
20260506184910 8 360 6.4 12.9 0.00 2.62 2.62 93 1007.3
20260506183910 8 193 6.4 14.5 0.00 2.62 2.62 93 1007.3
20260506182910 8 198 4.8 14.5 0.00 2.62 2.62 93 1007.2
20260506181910 8 236 4.8 14.5 0.00 2.62 2.62 93 1007.2
20260506180910 8 343 4.8 12.9 0.00 2.62 2.62 94 1007.2
20260506175910 8 290 4.8 9.7 0.00 2.62 2.62 94 1007.1
20260506174910 8 138 4.8 14.5 0.00 2.62 2.62 94 1007.0
20260506173910 8 167 6.4 12.9 0.00 2.62 2.62 94 1006.8
20260506172910 8 190 4.8 12.9 0.00 2.62 2.62 94 1006.8
20260506171910 8 190 6.4 12.9 0.03 2.62 2.62 94 1006.6
20260506170910 8 288 6.4 16.1 0.03 2.62 2.62 94 1006.7
20260506165910 8 20 6.4 16.1 0.03 2.62 2.62 94 1006.7
20260506164910 8 166 6.4 12.9 0.03 2.62 2.62 94 1006.6
20260506163910 8 169 6.4 19.3 0.03 2.62 2.62 94 1006.6
20260506162910 8 132 8.0 16.1 0.03 2.62 2.62 94 1006.7
20260506161910 8 122 4.8 11.3 0.00 2.59 2.59 94 1006.7
20260506160910 8 96 4.8 11.3 0.03 2.59 2.59 94 1006.6
20260506155910 8 107 6.4 12.9 0.03 2.59 2.59 93 1006.6
20260506154910 8 128 6.4 12.9 0.03 2.59 2.59 94 1006.7
20260506153910 8 183 6.4 16.1 0.03 2.59 2.59 94 1006.5
20260506152910 8 60 6.4 12.9 0.03 2.59 2.59 94 1006.5
20260506151910 8 86 6.4 14.5 0.05 2.59 2.59 94 1006.5
20260506150910 8 208 8.0 12.9 0.03 2.57 2.57 94 1006.3
20260506145910 8 150 6.4 17.7 0.05 2.57 2.57 94 1006.3
20260506144910 8 182 4.8 14.5 0.08 2.57 2.57 94 1006.3
20260506143910 8 178 4.8 11.3 0.10 2.57 2.57 94 1006.3
20260506142910 8 153 8.0 16.1 0.13 2.57 2.57 94 1006.2
20260506141910 8 306 4.8 14.5 0.10 2.54 2.54 94 1006.2
20260506140910 8 211 6.4 12.9 0.10 2.54 2.54 94 1006.3
20260506135910 8 291 4.8 11.3 0.10 2.51 2.51 94 1006.3
20260506134910 8 183 3.2 9.7 0.08 2.49 2.49 94 1006.4
20260506133910 8 248 3.2 8.0 0.08 2.46 2.46 94 1006.3
20260506132910 8 141 4.8 11.3 0.05 2.44 2.44 94 1006.3
20260506131910 8 177 6.4 12.9 0.08 2.44 2.44 94 1005.9
20260506130909 8 198 4.8 9.7 0.08 2.44 2.44 94 1005.8
20260506125910 8 244 4.8 11.3 0.05 2.41 2.41 94 1005.8
20260506124910 8 202 3.2 8.0 0.08 2.41 2.41 94 1005.9
20260506123909 8 173 4.8 8.0 0.08 2.39 2.39 95 1005.7
20260506122909 8 165 4.8 11.3 0.10 2.39 2.39 94 1005.8
20260506121910 8 227 3.2 9.7 0.08 2.39 2.39 94 1005.7
20260506120910 8 202 4.8 11.3 0.10 2.39 2.39 94 1005.6
20260506115910 8 180 3.2 11.3 0.13 2.39 2.39 94 1005.6
20260506114909 8 119 3.2 9.7 0.10 2.36 2.36 94 1005.5
20260506113917 8 94 3.2 8.0 0.10 2.34 2.34 94 1005.6
20260506112909 7 332 4.8 9.7 0.08 2.31 2.31 94 1005.6
20260506111909 7 192 4.8 8.0 0.08 2.31 2.31 94 1005.7
20260506110914 7 82 4.8 14.5 0.08 2.29 2.29 94 1005.6
20260506105914 7 99 6.4 14.5 0.05 2.26 2.26 94 1005.5
20260506104914 7 129 4.8 12.9 0.08 2.26 2.26 94 1005.6
20260506103914 7 204 4.8 12.9 0.05 2.24 2.24 94 1005.4
20260506102914 7 15 4.8 16.1 0.05 2.24 2.24 94 1005.5
20260506101914 7 115 6.4 14.5 0.08 2.24 2.24 94 1005.5
20260506100914 7 195 4.8 16.1 0.08 2.21 2.21 94 1005.4
20260506095914 7 244 6.4 20.9 0.08 2.21 2.21 94 1005.3
20260506094914 7 209 8.0 17.7 0.08 2.18 2.18 94 1005.3
20260506093914 7 113 6.4 16.1 0.08 2.18 2.18 94 1005.2
20260506092914 7 217 6.4 12.9 0.10 2.18 2.18 94 1005.1
20260506091914 7 289 6.4 12.9 0.10 2.16 2.16 94 1005.1
20260506090914 7 151 6.4 16.1 0.08 2.13 2.13 94 1005.0
20260506085914 7 237 8.0 19.3 0.10 2.13 2.13 94 1004.9
20260506084914 7 296 8.0 16.1 0.10 2.11 2.11 94 1004.8
20260506083914 7 196 8.0 19.3 0.13 2.11 2.11 94 1004.6
20260506082914 7 150 6.4 17.7 0.13 2.08 2.08 94 1004.6
20260506081914 6 101 6.4 12.9 0.15 2.06 2.06 94 1004.5
20260506080914 6 187 6.4 12.9 0.20 2.06 2.06 94 1004.5